Find OneWeb SL0090

NORAD ID: 45427 Int'l Des: 2020-020 Owner: ONEWEB Country: UK Constellation: oneweb operational
LEOCIRCULARPOLARONEWEB_TYPE

リアルタイム位置

3D地球を読み込み中...

OneWeb SL0090について

説明を読み込み中...

次回通過

Passes for default location (London). Set your location on the main map for personalized predictions.

高度履歴

Loading altitude history...

軌道要素

1 45427U 20020D 26125.48676402 .00000517 00000-0 14233-2 0 9997
2 45427 87.8932 29.5597 0001800 77.6900 282.4430 13.11419092297075
Epoch: May 5, 2026 • Age: 7 hours

現在のステータス

高度 1219.9 km
速度 7.25 km/s
衛星直下点 25.46°N, 120.21°W
打ち上げ日 Mar 21, 2020
運用期間 6.1 years
タイプ internet

技術仕様

分類 Payload
質量 148.00 kg
乾燥質量 140.00 kg
総質量 148.00 kg
長さ 1.30 m
直径 1.00 m
スパン 5.00 m
形状 Trapezoid+2 pan
製造者 ONEWUS
バスタイプ ARROW
フェーズステータス In Orbit
所有者/国 ONEWEB/UK

Most Searched